DW5026 Weather Reports


time (UTC)temp
C
wind
direction
speed
KPH
gust
KPH
rain 1hr
cm
rain 24hr
cm
rain mn
cm
humidity
%
barometer
mb
20260502123017 2 304 0.0 0.0 0.00 0.00 0.00 82 1010.4
20260502121534 2 304 0.0 0.0 0.00 0.00 0.00 82 1010.3
20260502114513 2 304 0.0 0.0 0.00 0.00 0.00 80 1010.3
20260502113011 3 304 0.0 0.0 0.00 0.00 0.00 80 1010.2
20260502111510 3 304 0.0 0.0 0.00 0.00 0.00 79 1010.2
20260502110009 3 304 0.0 0.0 0.00 0.00 0.00 80 1010.3
20260502104507 3 304 0.0 0.0 0.00 0.00 0.00 80 1010.3
20260502103006 3 304 0.0 0.0 0.00 0.00 0.00 80 1010.1
20260502101508 3 304 0.0 0.0 0.00 0.00 0.00 79 1010.1
20260502070036 6 303 0.0 0.0 0.00 0.00 0.00 71 1009.7
20260502064535 6 302 0.0 0.0 0.00 0.00 0.00 70 1009.6
20260502063032 6 302 0.0 0.0 0.00 0.00 0.00 68 1009.5
20260502061527 7 303 0.0 0.0 0.00 0.00 0.00 67 1009.4
20260502060024 7 303 0.0 1.6 0.00 0.00 0.00 66 1009.2
20260502054532 7 303 0.0 0.0 0.00 0.00 0.00 66 1009.3
20260502053022 8 302 0.0 1.6 0.00 0.00 0.00 64 1009.1
20260502051521 8 303 0.0 1.6 0.00 0.00 0.00 62 1009.1
20260502050029 8 302 0.0 1.6 0.00 0.00 0.00 61 1009.0
20260502044520 8 303 0.0 0.0 0.00 0.00 0.00 58 1009.1
20260502043020 9 302 0.0 1.6 0.00 0.00 0.00 57 1009.0
20260502041520 9 303 0.0 1.6 0.00 0.00 0.00 54 1009.0
20260502040019 10 303 0.0 0.0 0.00 0.00 0.00 51 1008.9
20260502034519 11 303 0.0 0.0 0.00 0.00 0.00 47 1008.6
20260502033017 11 303 0.0 0.0 0.00 0.00 0.00 44 1008.4
20260502031521 12 303 0.0 0.0 0.00 0.00 0.00 40 1008.3
20260502030017 13 302 0.0 0.0 0.00 0.00 0.00 35 1007.9
20260502024516 14 302 0.0 1.6 0.00 0.00 0.00 32 1007.8
20260502023015 15 302 0.0 0.0 0.00 0.00 0.00 29 1007.6
20260502021516 17 300 0.0 3.2 0.00 0.00 0.00 28 1007.4
20260502020014 18 297 1.6 6.4 0.00 0.00 0.00 26 1007.2
20260502014525 18 307 0.0 8.0 0.00 0.00 0.00 27 1007.0
20260502013014 19 325 4.8 12.9 0.00 0.00 0.00 26 1006.9
20260502011513 19 306 1.6 6.4 0.00 0.00 0.00 27 1006.9
20260502010013 19 315 1.6 8.0 0.00 0.00 0.00 27 1007.0
20260502004525 18 290 1.6 4.8 0.00 0.00 0.00 27 1007.0
20260502003009 18 302 4.8 12.9 0.00 0.00 0.00 27 1007.1
20260502001509 18 287 1.6 9.7 0.00 0.00 0.00 27 1007.2
20260502000009 18 311 3.2 11.3 0.00 0.00 0.00 27 1007.3
20260501234508 18 311 3.2 9.7 0.00 0.00 0.00 26 1007.2
20260501233007 18 300 3.2 11.3 0.00 0.00 0.00 26 1007.2
20260501231506 19 303 3.2 8.0 0.00 0.00 0.00 25 1007.3
20260501230004 19 305 4.8 14.5 0.00 0.00 0.00 26 1007.3
20260501224503 20 290 4.8 9.7 0.00 0.00 0.00 23 1007.6
20260501223108 20 303 3.2 8.0 0.00 0.00 0.00 24 1007.7
20260501221601 20 293 0.0 9.7 0.00 0.00 0.00 23 1007.8
20260501220106 20 297 1.6 8.0 0.00 0.00 0.00 23 1008.0
20260501214559 20 314 3.2 11.3 0.00 0.00 0.00 24 1008.3
20260501213110 20 308 1.6 8.0 0.00 0.00 0.00 23 1008.3
20260501211556 20 302 1.6 8.0 0.00 0.00 0.00 22 1008.4
20260501210057 20 274 0.0 14.5 0.00 0.00 0.00 25 1008.4
20260501204555 20 294 0.0 11.3 0.00 0.00 0.00 23 1008.5
20260501203058 20 304 0.0 9.7 0.00 0.00 0.00 24 1008.5
20260501201553 20 270 6.4 14.5 0.00 0.00 0.00 22 1008.6
20260501200051 20 300 4.8 11.3 0.00 0.00 0.00 21 1008.6
20260501194555 19 291 1.6 9.7 0.00 0.00 0.00 24 1008.7
20260501193049 19 293 1.6 11.3 0.00 0.00 0.00 20 1008.8
20260501191548 20 302 3.2 11.3 0.00 0.00 0.00 22 1008.9
20260501190046 18 305 1.6 11.3 0.00 0.00 0.00 25 1009.1
20260501184545 19 327 1.6 9.7 0.00 0.00 0.00 22 1009.2
20260501183050 19 295 0.0 11.3 0.00 0.00 0.00 21 1009.5
20260501181540 18 299 3.2 9.7 0.00 0.00 0.00 23 1009.6
20260501180040 18 314 0.0 6.4 0.00 0.00 0.00 25 1009.8
20260501174545 17 305 3.2 6.4 0.00 0.00 0.00 26 1009.8
20260501173035 17 335 1.6 8.0 0.00 0.00 0.00 25 1010.1
20260501171530 16 312 1.6 9.7 0.00 0.00 0.00 28 1010.0
20260501170028 16 309 0.0 6.4 0.00 0.00 0.00 33 1010.1
20260501164540 16 295 0.0 4.8 0.00 0.00 0.00 35 1010.2
20260501163023 15 300 0.0 3.2 0.00 0.00 0.00 35 1010.2
20260501161522 14 300 0.0 4.8 0.00 0.00 0.00 37 1010.3
20260501160020 13 329 1.6 4.8 0.00 0.00 0.00 38 1010.3
20260501154529 13 315 0.0 4.8 0.00 0.00 0.00 39 1010.3
20260501153027 13 287 0.0 1.6 0.00 0.00 0.00 39 1010.3
20260501151516 13 277 0.0 1.6 0.00 0.00 0.00 39 1010.4